Simultaneous Nadir Overpasses (SNOs) Predictions

Prediction of SNOs between LANDSAT-8 and NPP Satellite Orbit:

Table of predicted SNOs for the next 14.0 days since TLE Epoch: 12/1/2013
Index Date (LANDSAT-8) Time (LANDSAT-8) Lat,Lon (LANDSAT-8) SZA (LANDSAT-8 ) Date (NPP) Time (NPP) Lat,Lon (NPP) SZA (NPP ) Distance(km) Time Diff (sec)
1 12/02/2013 14:43:32 70.10, -44.10 92.02 12/02/2013 14:42:34 70.08, -44.02 92.01 3.42 58
2 12/02/2013 15:33:02 -70.00, 123.39 88.08 12/02/2013 15:33:16 -69.99, 123.43 88.08 1.70 14
3 12/02/2013 16:22:41 69.22, -70.02 91.16 12/02/2013 16:23:48 69.23, -68.14 91.16 73.98 67
4 12/05/2013 07:00:02 70.05, 71.71 92.34 12/05/2013 06:59:34 70.07, 71.76 92.36 3.05 28
5 12/05/2013 07:49:32 -69.95,-120.80 87.76 12/05/2013 07:50:16 -69.98,-120.79 87.73 3.19 44
6 12/07/2013 22:27:04 -70.17, 20.10 87.25 12/07/2013 22:25:50 -70.19, 20.03 87.22 3.62 74
7 12/07/2013 23:16:31 70.04,-172.43 92.64 12/07/2013 23:16:34 70.07,-172.47 92.67 3.27 3
8 12/08/2013 00:06:02 -69.90, -5.00 87.51 12/08/2013 00:07:15 -69.92, -4.94 87.48 4.17 73
9 12/10/2013 14:43:32 -70.15, 135.95 87.01 12/10/2013 14:42:48 -70.14, 135.88 87.01 2.91 44
10 12/10/2013 15:32:59 70.02, -56.58 92.88 12/10/2013 15:33:32 70.02, -56.63 92.88 1.94 33
11 12/13/2013 06:10:24 70.59, 84.84 93.64 12/13/2013 06:09:14 70.66, 83.50 93.73 50.13 70
12 12/13/2013 07:00:01 -70.11,-108.22 86.83 12/13/2013 06:59:47 -70.09,-108.29 86.85 3.49 14
13 12/13/2013 07:49:28 69.98, 59.24
